Regional Weather Roundup
Issued by NWS Midland/Odessa, TX

Skip options and go directly to product.
Home | Oldest Version | Previous Version | Current Version | All | Text Only | Save Text | Print | Product List | Glossary Off

Skip product version selection by date and time.   

467
ASUS44 KMAF 272110
RWRMAF
MIDLAND AREA WEATHER ROUNDUP
NATIONAL WEATHER SERVICE MIDLAND TX
400 PM CDT THU AUG 27 2015

...IN SOUTHWEST TEXAS AND SOUTHEAST NEW MEXICO...

CITY           SKY/WX    TMP DP  RH WIND       PRES   REMARKS
ALPINE         PTSUNNY   91  49  24 S8        30.22F
ANDREWS        FAIR      95  48  20 S8G16     30.09F
ARTESIA        FAIR      95  54  24 VRB6      30.08F
BIG SPRING     FAIR      94  54  26 S6        30.09F
CARLSBAD       FAIR      98  48  18 SE8       30.05F
DRYDEN           N/A     98  55  23 S12G22    30.03F
FORT STOCKTON  FAIR      97  50  20 E10       30.07F
GUAD PASS      FAIR      88  48  25 VRB6      30.25F
HOBBS          MOSUNNY   91  46  21 S6        30.11F
MARFA          FAIR      88  52  29 SE5       30.22F
MIDLAND AIRPK  FAIR      96  48  19 SE13      30.08F
MIDLAND INTL   FAIR      96  51  21 S16       30.07F
ODESSA         FAIR      95  46  18 SE9       30.09F
PECOS          FAIR      98  49  19 SW8       30.02F
PRESIDIO       NOT AVBL
SEMINOLE       FAIR      96  40  14 S8        30.10F
SNYDER         FAIR      96  56  26 S12       30.06F
WINK           FAIR      99  48  17 VRB7      30.03F
$$
...OTHER STATIONS IN TEXAS...

CITY           SKY/WX    TMP DP  RH WIND       PRES   REMARKS
ABILENE        FAIR      96  57  27 E5        30.03F
AMARILLO       FAIR      90  57  32 S8        30.06F
AUSTIN         FAIR      95  61  32 SW7       29.99F
BROWNSVILLE    FAIR      90  63  40 N8G17     29.99F
CORPUS CHRISTI PTSUNNY   92  61  35 E13G18    30.00F
DALLAS FTW     PTSUNNY   95  61  32 VRB7      30.00F
DEL RIO        FAIR      98  62  30 S8        29.98F
EL PASO        PTSUNNY   94  52  24 VRB3      30.10F
HOUSTON INT    PTSUNNY   92  63  38 N5        30.00F
LUBBOCK        FAIR      95  48  20 S14G25    30.08F
SAN ANGELO     FAIR      99  55  23 E6        30.03F
SAN ANTONIO    FAIR      94  64  37 VRB6      30.01F
WACO           FAIR      97  61  30 S8        30.00F
WICHITA FALLS  NOT AVBL
$$
...OTHER LOCATIONS IN NEW MEXICO...

CITY           SKY/WX    TMP DP  RH WIND       PRES   REMARKS
ALAMAGORDO     FAIR      91  50  24 W6        30.13F
ALBUQUERQUE    PTSUNNY   85  52  32 W9G18     30.22F
CANNON AFB     PTSUNNY   92  51  24 W17G23    30.10F
CLOVIS         FAIR      90  52  27 SW5       30.12F
HOLLOMAN AFB   FAIR      92  52  25 VRB7      30.10F
ROSWELL        PTSUNNY   81  58  45 NW21G28   30.10F
RUIDOSO        PTSUNNY   75  54  46 MISG      30.35F
SANTA FE       FAIR      79  53  40 VRB7      30.26F
TRUTH OR CONSE LGT RAIN  81  56  42 NW15      30.19S
TUCUMCARI      FAIR      95  50  21 W16G25    30.05F
$$

USA.gov is the U.S. government's official web portal to all federal, state and local government web resources and services.